TimeCST,TemperatureF,Dew PointF,Humidity,Sea Level PressureIn,VisibilityMPH,Wind Direction,Wind SpeedMPH,Gust SpeedMPH,PrecipitationIn,Events,Conditions,WindDirDegrees,DateUTC
12:53 AM,48.0,27.0,44,30.30,10.0,North,10.4,-,N/A,,Clear,350,2013-03-06 06:53:00
1:53 AM,46.0,27.0,47,30.30,10.0,North,9.2,-,N/A,,Clear,360,2013-03-06 07:53:00
2:53 AM,45.0,27.0,49,30.30,10.0,North,8.1,-,N/A,,Clear,10,2013-03-06 08:53:00
3:53 AM,43.0,27.0,53,30.32,10.0,North,9.2,-,N/A,,Clear,350,2013-03-06 09:53:00
4:53 AM,42.1,27.0,55,30.34,10.0,North,8.1,-,N/A,,Clear,360,2013-03-06 10:53:00
5:53 AM,39.9,27.0,60,30.35,10.0,North,8.1,-,N/A,,Clear,10,2013-03-06 11:53:00
6:53 AM,39.9,27.0,60,30.37,10.0,NNE,6.9,-,N/A,,Clear,20,2013-03-06 12:53:00
7:53 AM,44.1,27.0,51,30.39,10.0,NNE,8.1,-,N/A,,Clear,30,2013-03-06 13:53:00
8:53 AM,48.9,26.1,41,30.40,10.0,NE,15.0,23.0,N/A,,Clear,40,2013-03-06 14:53:00
9:53 AM,53.1,26.1,35,30.40,10.0,NNE,12.7,-,N/A,,Clear,20,2013-03-06 15:53:00
10:53 AM,55.9,25.0,30,30.39,10.0,NE,10.4,-,N/A,,Clear,40,2013-03-06 16:53:00
11:53 AM,60.1,26.1,27,30.37,10.0,North,8.1,-,N/A,,Clear,350,2013-03-06 17:53:00
12:53 PM,63.0,26.1,25,30.33,10.0,North,6.9,-,N/A,,Clear,10,2013-03-06 18:53:00
1:53 PM,64.9,25.0,22,30.29,10.0,North,10.4,-,N/A,,Clear,350,2013-03-06 19:53:00
2:53 PM,66.0,23.0,20,30.28,10.0,Variable,3.5,-,N/A,,Clear,0,2013-03-06 20:53:00
3:53 PM,66.0,21.9,19,30.25,10.0,NW,6.9,-,N/A,,Clear,320,2013-03-06 21:53:00
4:53 PM,66.0,25.0,21,30.25,10.0,NNW,4.6,-,N/A,,Clear,330,2013-03-06 22:53:00
5:53 PM,57.9,39.0,49,30.25,10.0,South,11.5,-,N/A,,Clear,180,2013-03-06 23:53:00
6:53 PM,48.0,39.9,74,30.26,10.0,South,8.1,-,N/A,,Clear,170,2013-03-07 00:53:00
7:53 PM,48.9,41.0,74,30.26,10.0,Calm,Calm,-,N/A,,Clear,0,2013-03-07 01:53:00
8:53 PM,46.0,39.9,79,30.26,10.0,Calm,Calm,-,N/A,,Clear,0,2013-03-07 02:53:00
9:53 PM,46.0,42.1,86,30.27,10.0,Calm,Calm,-,N/A,,Clear,0,2013-03-07 03:53:00
10:53 PM,46.9,43.0,86,30.27,10.0,Calm,Calm,-,N/A,,Clear,0,2013-03-07 04:53:00
11:53 PM,46.9,44.1,90,30.26,10.0,Calm,Calm,-,N/A,,Clear,0,2013-03-07 05:53:00